Notices

What's New in latest Release from April 7th, 2021:

- Updated Glossary, including Speed of Maximum Gust, and Total Hourly Precipitation

- Updated national and regional climate services offices contacts and prices information

- Addition of station inventory lists for 1981-2010, 1971-2000, and 1961-1990 Normals.

If you haven't already, please take our survey and provide feedback about our website: https://eccc.sondage-survey.ca/f/LanguageSelection.aspx?s=442ca660-fcf1-47c0-95a9-59707d6fd709

Hourly Data Report for March 25, 2017

MIRAMICHI RCS
NEW BRUNSWICK

47°00'34.000" N
65°27'54.000" W
33.00 m
8100989
71744
ACQ

Download Data

Hourly Data (March 2017)
Hourly Data Report for March 25, 2017
TIME
LST
Temp Definition
°C
Dew Point Definition
°C
Rel Hum Definition
%
Precip. Amount Definition
mm

Wind Dir Definition
10's deg

Wind Spd Definition
km/h
Visibility Definition
km
Stn Press Definition
kPa
Hmdx Definition


Wind Chill Definition


Weather Definition


00:00 -1.6 -4.0 84 0.0 23 15   101.14   -6 LegendNANA
01:00 -1.4 -3.8 84 0.0 24 14   101.12   -6 LegendNANA
02:00 -1.5 -3.8 84 0.0 25 14   101.05   -6 LegendNANA
03:00 -1.8 -3.9 86 0.0 24 9   101.02   -5 LegendNANA
04:00 -1.8 -4.2 84 0.0 25 7   101.05   -4 LegendNANA
05:00 -2.1 -4.6 83 0.0 25 2   101.13   -3 LegendNANA
06:00 -3.4 -5.5 85 0.0 26 6   101.20   -6 LegendNANA
07:00 -2.5 -5.4 81 0.0 27 5   101.29   -4 LegendNANA
08:00 -0.7 -5.3 71 0.0 29 9   101.38   -4 LegendNANA
09:00 1.7 -6.2 56 0.0 32 16   101.47     LegendNANA
10:00 2.2 -8.1 46 0.0 31 13   101.50     LegendNANA
11:00 2.4 -11.4 35 0.0 31 18   101.58     LegendNANA
12:00 3.0 -14.9 25 0.0 33 14   101.58     LegendNANA
13:00 3.3 -14.6 26 0.0 32 15   101.59     LegendNANA
14:00 3.4 -15.1 24 0.0 31 17   101.60     LegendNANA
15:00 3.7 -16.5 21 0.0 32 14   101.59     LegendNANA
16:00 3.8 -17.0 20 0.0 32 13   101.59     LegendNANA
17:00 2.7 -19.5 18 0.0 32 17   101.68     LegendNANA
18:00 1.1 -19.6 20 0.0 31 13   101.79     LegendNANA
19:00 -0.7 -19.9 22 0.0 31 11   101.93   -4 LegendNANA
20:00 -2.2 -20.1 24 0.0 31 11   102.10   -6 LegendNANA
21:00 -3.2 -20.5 25 0.0 32 11   102.24   -7 LegendNANA
22:00 -4.3 -19.7 29 0.0 32 10   102.32   -8 LegendNANA
23:00 -5.1 -19.1 33 0.0 32 10   102.35   -9 LegendNANA

Notes on Data Quality.

Legend

  • E = Estimated
  • M = Missing
  • NA = Not Available*
  • [empty] = Indicates an unobserved value
Date modified: